Вернуться в каталог

STARLINK-5857

АктивенСвязьVLEO
NORAD 55946·PAYLOAD·🇺🇸 United States

Запущен Mar 17, 2023 с Vandenberg Space Force Base

Loading…

Ближайшие Пролёты (ближайшие 24 часа)

TLE

СвежийSource: CelesTrak SupGP

Эпоха: Sep 14, 2026, 22:26 UTC

1 55946C 23037AJ  26257.93520833 -.00037118  00000+0 -31105-2 0  2579
2 55946  70.0016 167.2190 0003040 269.1780 296.9860 14.98351554    17

Отслеживайте STARLINK-5857 в реальном времени с AllMySat

Download on the App Store